Mountain Home Air Force Base, ID

1:54 PM MDT on July 23, 2016 (GMT -0600)
Mountain Home Air Force Base

Weather History for KMUO - December, 2013

Change the Weather History Date:

Sunday, December 15, 2013

  Actual Average Record
Temperature  
Mean Temperature 25 °F 29 °F  
Max Temperature 34 °F 37 °F 57 °F (1929)
Min Temperature 16 °F 21 °F -19 °F (1922)
Degree Days  
Heating Degree Days 40 36  
Month to date heating degree days 632 513  
Cooling Degree Days 0 0  
Month to date cooling degree days 0 0  
Moisture  
Dew Point 22 °F    
Average Humidity 93    
Maximum Humidity 100    
Minimum Humidity 71    
Precipitation  
Precipitation 0.00 in 0.05 in 0.38 in (1977)
Month to date precipitation 0.01 0.83  
Sea Level Pressure  
Sea Level Pressure 30.55 in    
Wind  
Wind Speed 4 mph (East)    
Max Wind Speed 13 mph    
Max Gust Speed -    
Visibility 9 miles    
Events      
T = Trace of Precipitation, MM = Missing Value Source: NWS Daily Summary

Daily Weather History Graph

Daily Weather History Graph

Search for Another Location

Airport or City:

Trip Planner

Search our weather history database for the weather conditions in past years. The results will help you decide how hot, cold, wet, or windy it might be!

Date:

Astronomy

Dec. 15, 2013 Rise Set
Actual Time 8:08 AM MST 5:09 PM MST
Civil Twilight 7:35 AM MST 5:41 PM MST
Nautical Twilight 6:59 AM MST 6:17 PM MST
Astronomical Twilight 6:25 AM MST 6:52 PM MST
Moon 4:18 PM MST (12/15) 6:26 AM MST (12/15)
Length of Visible Light 10h 06m
Length of Day
9h 01m
Waxing Gibbous, 98% of the Moon is Illuminated
Dec 15
Waxing Gibbous
Dec 17
Full
Dec 25
Last Quarter
Jan 1
New
Jan 7
First Quarter

Hourly Weather History & Observations

Time (MST) Temp. Windchill Dew Point Humidity Pressure Visibility Wind Dir Wind Speed Gust Speed Precip Events Conditions
12:58 AM 18.3 °F - 18.1 °F 99% 30.62 in 10.0 mi NW 2.3 mph - N/A   Clear
1:58 AM 17.1 °F - 16.9 °F 99% 30.62 in 10.0 mi NE 2.3 mph - N/A   Partly Cloudy
2:58 AM 17.8 °F 12.5 °F 17.6 °F 99% 30.62 in 10.0 mi East 3.5 mph - N/A   Scattered Clouds
3:43 AM 17.6 °F 12.3 °F 17.6 °F 100% 30.51 in 9.0 mi East 3.5 mph - N/A   Overcast
3:58 AM 19.6 °F - 19.4 °F 99% 30.61 in 7.0 mi East 2.3 mph - N/A   Mostly Cloudy
4:58 AM 18.9 °F 12.1 °F 18.9 °F 100% 30.60 in 6.0 mi SSE 4.6 mph - N/A   Overcast
5:58 AM 20.3 °F 13.8 °F 20.3 °F 100% 30.60 in 8.0 mi East 4.6 mph - N/A   Overcast
6:58 AM 20.8 °F 12.1 °F 20.8 °F 100% 30.61 in 7.0 mi ENE 6.9 mph - N/A   Overcast
7:18 AM 21.2 °F 12.6 °F 21.2 °F 100% 30.48 in 10.0 mi East 6.9 mph - N/A   Overcast
7:58 AM 19.9 °F 12.1 °F 19.6 °F 99% 30.59 in 10.0 mi East 5.8 mph - N/A   Overcast
8:58 AM 20.3 °F 11.5 °F 19.9 °F 99% 30.59 in 10.0 mi East 6.9 mph - N/A   Scattered Clouds
9:58 AM 22.8 °F 13.6 °F 22.6 °F 99% 30.62 in 10.0 mi SE 8.1 mph - N/A   Clear
10:58 AM 27.3 °F 17.1 °F 23.9 °F 87% 30.61 in 10.0 mi SE 11.5 mph - N/A   Clear
11:58 AM 29.5 °F 19.3 °F 24.1 °F 80% 30.59 in 10.0 mi ESE 12.7 mph - N/A   Mostly Cloudy
12:58 PM 32.2 °F 22.7 °F 24.1 °F 72% 30.55 in 10.0 mi East 12.7 mph - N/A   Scattered Clouds
1:58 PM 32.7 °F 27.3 °F 25.0 °F 73% 30.55 in 10.0 mi SSE 5.8 mph - N/A   Overcast
2:58 PM 32.5 °F - 24.4 °F 72% 30.53 in 10.0 mi SSW 2.3 mph - N/A   Overcast
3:58 PM 33.3 °F 28.9 °F 24.6 °F 71% 30.53 in 10.0 mi WNW 4.6 mph - N/A   Mostly Cloudy
4:58 PM 31.8 °F - 26.1 °F 79% 30.52 in 10.0 mi Calm Calm - N/A   Mostly Cloudy
5:58 PM 28.2 °F 24.4 °F 25.2 °F 88% 30.51 in 10.0 mi ESE 3.5 mph - N/A   Mostly Cloudy
6:58 PM 28.0 °F 22.8 °F 27.3 °F 97% 30.51 in 10.0 mi East 4.6 mph - N/A   Overcast
7:58 PM 28.2 °F 24.4 °F 27.5 °F 97% 30.53 in 10.0 mi NW 3.5 mph - N/A   Overcast
8:58 PM 26.2 °F 22.1 °F 26.1 °F 99% 30.53 in 10.0 mi WNW 3.5 mph - N/A   Overcast
9:43 PM 23.0 °F 17.0 °F 23.0 °F 100% 30.43 in 9.0 mi WNW 4.6 mph - N/A   Mostly Cloudy
9:58 PM 23.5 °F 19.1 °F 23.2 °F 99% 30.54 in 9.0 mi WNW 3.5 mph - N/A   Scattered Clouds
10:58 PM 21.9 °F 17.2 °F 21.9 °F 100% 30.54 in 9.0 mi NW 3.5 mph - N/A   Clear
11:28 PM 21.2 °F - 21.2 °F 100% 30.45 in 9.0 mi NNW 2.3 mph - N/A   Clear
11:38 PM 21.2 °F - 21.2 °F 100% 30.44 in 9.0 mi Calm Calm - N/A   Clear
11:58 PM 21.7 °F - 21.6 °F 99% 30.54 in 9.0 mi NNW 2.3 mph - N/A   Clear